Weather in Rocha

Uruguay     34°28′56″S   54°19′43″W
temp.,
°C
wind,
m/s
gust,
m/s
humid.,
%
clouds,
%
prec.,
mm/h
press.,
hPa
HPBL,
m
5 march, fri
fri500:00+19sw129748 1.8 101025
03:00+19sw229540 1.9 100835
06:00+19ssw38960 0.1 1007265
09:00+22s58811 0.3 1009916
12:00+23s8107912 1.1 1009960
15:00+21ssw797140 1.3 10091114
18:00+19ssw697499 0.1 10091078
21:00+19ssw6974100 0.1 10101023
6 march, sat
sat600:00+19ssw4875100 0.1 1010718
03:00+20ssw3772100 0.2 1009390
06:00+19ssw4886100 0.3 1009478
09:00+21ssw467458 0.3 1011832
12:00+24s446145 0.1 10121247
15:00+23s556427 0.2 10111039
18:00+21s46781 0.1 1012712
21:00+18sse23934 0.1 101372
7 march, sun
sun700:00+18se119470 0.3 101323
03:00+16nne129262 0.3 101223
06:00+15nnw11910 0.0 101323
09:00+21nnw01785 0.0 1014235
12:00+24ne236592 0.0 10141045
15:00+25e346195 0.0 10131319
18:00+23ene476912 0.0 1012575
21:00+18ne39906 0.0 1013244
8 march, mon
mon800:00+17nne39910 0.0 1013212
03:00+16n36961 0.0 1012146
06:00+16n129616 0.0 101423
09:00+21wnw01797 0.0 1015243
12:00+26s22547 0.0 10151455
15:00+25sse44609 0.0 1014742
18:00+22sse477695 0.0 1014657
21:00+19ese238798 0.0 101554
9 march, tue
tue900:00+19wsw1191100 0.0 101523
03:00+18ese1192100 0.0 101424
06:00+18s129446 0.2 101524
09:00+23sse357424 0.2 1015778
12:00+26ese44591 0.2 10161342
15:00+25se44574 0.3 10151144
18:00+22ese46730 0.0 1015696
21:00+18e23920 0.0 101651